LEMUR-2-ANGELA

Last updated on Wed Feb 14 2018 16:20:43 GMT+0000 (Coordinated Universal Time)

1 42752U 17019B 18045.24379971 .00002187 00000-0 90065-4 0 9990 2 42752 51.6421 320.2162 0011059 125.7787 234.4223 15.28604459 38308

Satellite not in orbit

LEMUR-2-ANGELA